Location: Caramacate
(10.0289°N, 66.7587°W)
Time: 20:56:13
(UTC+00:00)

SL-08 R/B - Pass Details

Date: 05 August 2024
Orbit: 670 x 733 km, 98.5° (Epoch: 07 September)

Event Time Altitude Azimuth Distance (km) Brightness Sun altitude
Rises 23:00:46 0° 13° (NNE) 3,058 6.7 -3.7°
Reaches altitude 10° 23:02:59 10° 13° (NNE) 2,151 5.9 -4.2°
Maximum altitude 23:07:42 86° 103° (ESE) 712 3.4 -5.3°
Drops below altitude 10° 23:12:31 10° 191° (S) 2,193 5.8 -6.4°
Sets 23:14:48 0° 192° (SSW) 3,122 6.6 -7.0°
